| time (UTC) | temp F | wind direction | speed MPH | gust MPH | rain 1hr in | rain 24hr in | rain mn in | humidity % | barometer mb |
| 20260504172015 | 77 | 180 | 1.0 | 7.0 | 0.00 | 0.00 | 0.00 | 68 | 1013.6 |
| 20260504171015 | 75 | 180 | 2.0 | 9.0 | 0.00 | 0.00 | 0.00 | 69 | 1013.7 |
| 20260504151017 | 70 | 158 | 1.0 | 11.0 | 0.00 | 0.00 | 0.00 | 75 | 1014.3 |
| 20260504150517 | 70 | 180 | 3.0 | 12.0 | 0.00 | 0.00 | 0.00 | 74 | 1014.3 |
| 20260504140517 | 66 | 180 | 2.0 | 7.0 | 0.00 | 0.00 | 0.00 | 78 | 1014.4 |
| 20260504130517 | 62 | 180 | 2.0 | 8.0 | 0.00 | 0.00 | 0.00 | 85 | 1014.1 |
| 20260504110517 | 58 | 0.0 | 0.0 | 0.00 | 0.00 | 0.00 | 87 | 1013.9 | |
| 20260504100516 | 59 | 0.0 | 0.0 | 0.00 | 0.00 | 0.00 | 84 | 1014.2 | |
| 20260504081517 | 62 | 0.0 | 2.0 | 0.00 | 0.00 | 0.00 | 79 | 1014.8 | |
| 20260504080516 | 62 | 0.0 | 4.0 | 0.00 | 0.00 | 0.00 | 78 | 1014.9 | |
| 20260504050516 | 65 | 158 | 1.0 | 5.0 | 0.00 | 0.00 | 0.00 | 69 | 1017.0 |
| 20260504045517 | 65 | 0.0 | 3.0 | 0.00 | 0.00 | 0.00 | 68 | 1016.9 | |
| 20260504044517 | 65 | 180 | 1.0 | 6.0 | 0.00 | 0.00 | 0.00 | 67 | 1017.1 |
| 20260504043517 | 66 | 180 | 1.0 | 5.0 | 0.00 | 0.00 | 0.00 | 66 | 1017.0 |
| 20260504042517 | 66 | 0.0 | 5.0 | 0.00 | 0.00 | 0.00 | 64 | 1017.1 | |
| 20260504041517 | 66 | 180 | 1.0 | 4.0 | 0.00 | 0.00 | 0.00 | 62 | 1017.2 |
| 20260504040537 | 66 | 0.0 | 4.0 | 0.00 | 0.00 | 0.00 | 61 | 1017.1 | |
| 20260504035517 | 67 | 0.0 | 5.0 | 0.00 | 0.00 | 0.00 | 60 | 1017.2 | |
| 20260504034517 | 67 | 180 | 1.0 | 6.0 | 0.00 | 0.00 | 0.00 | 58 | 1017.0 |
| 20260504033538 | 67 | 180 | 1.0 | 8.0 | 0.00 | 0.00 | 0.00 | 56 | 1017.0 |
| 20260504032537 | 67 | 180 | 1.0 | 7.0 | 0.00 | 0.00 | 0.00 | 55 | 1016.8 |
| 20260504031517 | 67 | 0.0 | 4.0 | 0.00 | 0.00 | 0.00 | 55 | 1017.0 | |
| 20260504030517 | 67 | 0.0 | 0.0 | 0.00 | 0.00 | 0.00 | 54 | 1016.8 | |
| 20260504025517 | 67 | 0.0 | 0.0 | 0.00 | 0.00 | 0.00 | 54 | 1017.0 | |
| 20260504024517 | 67 | 0.0 | 0.0 | 0.00 | 0.00 | 0.00 | 54 | 1016.8 | |
| 20260504023517 | 68 | 0.0 | 1.0 | 0.00 | 0.00 | 0.00 | 52 | 1016.6 | |
| 20260504022517 | 68 | 0.0 | 2.0 | 0.00 | 0.00 | 0.00 | 51 | 1016.5 | |
| 20260504021517 | 69 | 0.0 | 1.0 | 0.00 | 0.00 | 0.00 | 49 | 1016.7 | |
| 20260504020536 | 70 | 0.0 | 1.0 | 0.00 | 0.00 | 0.00 | 48 | 1016.6 | |
| 20260504015517 | 70 | 0.0 | 2.0 | 0.00 | 0.00 | 0.00 | 48 | 1016.5 | |
| 20260504014517 | 70 | 0.0 | 3.0 | 0.00 | 0.00 | 0.00 | 47 | 1016.2 | |
| 20260504013517 | 71 | 0.0 | 1.0 | 0.00 | 0.00 | 0.00 | 47 | 1016.1 | |
| 20260504012517 | 72 | 0.0 | 1.0 | 0.00 | 0.00 | 0.00 | 46 | 1016.2 | |
| 20260504011537 | 72 | 0.0 | 0.0 | 0.00 | 0.00 | 0.00 | 45 | 1016.2 | |
| 20260504010516 | 73 | 0.0 | 1.0 | 0.00 | 0.00 | 0.00 | 44 | 1016.2 | |
| 20260504005517 | 73 | 0.0 | 0.0 | 0.00 | 0.00 | 0.00 | 43 | 1016.3 | |
| 20260504004516 | 74 | 0.0 | 1.0 | 0.00 | 0.00 | 0.00 | 42 | 1016.1 | |
| 20260504003637 | 74 | 0.0 | 3.0 | 0.00 | 0.00 | 0.00 | 40 | 1016.1 | |
| 20260504002516 | 75 | 0.0 | 2.0 | 0.00 | 0.00 | 0.00 | 40 | 1016.2 | |
| 20260504001536 | 75 | 180 | 1.0 | 7.0 | 0.00 | 0.00 | 0.00 | 40 | 1016.4 |
| 20260504000517 | 75 | 158 | 1.0 | 5.0 | 0.00 | 0.00 | 0.00 | 39 | 1016.5 |
| 20260503235517 | 76 | 0.0 | 2.0 | 0.00 | 0.00 | 0.00 | 39 | 1016.6 | |
| 20260503234516 | 77 | 180 | 1.0 | 5.0 | 0.00 | 0.00 | 0.00 | 38 | 1016.7 |
| 20260503233536 | 77 | 0.0 | 3.0 | 0.00 | 0.00 | 0.00 | 37 | 1016.8 | |
| 20260503232516 | 77 | 90 | 1.0 | 4.0 | 0.00 | 0.00 | 0.00 | 38 | 1016.8 |
| 20260503231516 | 77 | 0.0 | 3.0 | 0.00 | 0.00 | 0.00 | 37 | 1016.8 | |
| 20260503230537 | 77 | 0.0 | 2.0 | 0.00 | 0.00 | 0.00 | 37 | 1016.7 | |
| 20260503225516 | 77 | 135 | 1.0 | 5.0 | 0.00 | 0.00 | 0.00 | 36 | 1016.7 |
| 20260503224516 | 78 | 0.0 | 4.0 | 0.00 | 0.00 | 0.00 | 35 | 1017.0 | |
| 20260503223516 | 79 | 113 | 1.0 | 5.0 | 0.00 | 0.00 | 0.00 | 35 | 1017.2 |
| 20260503222516 | 79 | 180 | 1.0 | 10.0 | 0.00 | 0.00 | 0.00 | 34 | 1017.3 |
| 20260503221516 | 80 | 90 | 1.0 | 4.0 | 0.00 | 0.00 | 0.00 | 35 | 1017.4 |
| 20260503220517 | 80 | 158 | 1.0 | 9.0 | 0.00 | 0.00 | 0.00 | 35 | 1017.6 |
| 20260503215536 | 80 | 90 | 1.0 | 6.0 | 0.00 | 0.00 | 0.00 | 34 | 1017.7 |
| 20260503214516 | 80 | 180 | 1.0 | 6.0 | 0.00 | 0.00 | 0.00 | 34 | 1017.8 |
| 20260503213516 | 80 | 158 | 1.0 | 7.0 | 0.00 | 0.00 | 0.00 | 35 | 1017.9 |
| 20260503212516 | 80 | 158 | 1.0 | 4.0 | 0.00 | 0.00 | 0.00 | 34 | 1018.1 |
| 20260503211516 | 80 | 158 | 3.0 | 11.0 | 0.00 | 0.00 | 0.00 | 33 | 1018.2 |
| 20260503210516 | 80 | 158 | 1.0 | 4.0 | 0.00 | 0.00 | 0.00 | 34 | 1018.4 |
| 20260503205516 | 80 | 180 | 2.0 | 7.0 | 0.00 | 0.00 | 0.00 | 35 | 1018.8 |
| 20260503204516 | 80 | 158 | 2.0 | 8.0 | 0.00 | 0.00 | 0.00 | 33 | 1018.9 |
| 20260503203516 | 81 | 180 | 2.0 | 11.0 | 0.00 | 0.00 | 0.00 | 34 | 1019.1 |
| 20260503202516 | 80 | 248 | 1.0 | 8.0 | 0.00 | 0.00 | 0.00 | 36 | 1019.2 |
| 20260503201516 | 80 | 180 | 2.0 | 8.0 | 0.00 | 0.00 | 0.00 | 37 | 1019.3 |
| 20260503200516 | 80 | 180 | 2.0 | 8.0 | 0.00 | 0.00 | 0.00 | 36 | 1019.3 |
| 20260503195516 | 80 | 158 | 3.0 | 9.0 | 0.00 | 0.00 | 0.00 | 37 | 1019.8 |
| 20260503194516 | 80 | 158 | 1.0 | 8.0 | 0.00 | 0.00 | 0.00 | 37 | 1019.8 |
| 20260503193516 | 80 | 158 | 1.0 | 8.0 | 0.00 | 0.00 | 0.00 | 36 | 1019.9 |
| 20260503192516 | 80 | 90 | 2.0 | 7.0 | 0.00 | 0.00 | 0.00 | 37 | 1020.1 |
| 20260503191516 | 80 | 90 | 1.0 | 9.0 | 0.00 | 0.00 | 0.00 | 36 | 1020.0 |
| 20260503190516 | 80 | 0.0 | 3.0 | 0.00 | 0.00 | 0.00 | 37 | 1020.3 | |
| 20260503185516 | 80 | 0.0 | 0.0 | 0.00 | 0.00 | 0.00 | 39 | 1020.4 | |
| 20260503184516 | 79 | 90 | 1.0 | 6.0 | 0.00 | 0.00 | 0.00 | 36 | 1020.5 |
| 20260503183516 | 79 | 180 | 2.0 | 11.0 | 0.00 | 0.00 | 0.00 | 36 | 1020.6 |
| 20260503182516 | 79 | 90 | 2.0 | 14.0 | 0.00 | 0.00 | 0.00 | 37 | 1020.8 |
| 20260503181516 | 79 | 113 | 2.0 | 8.0 | 0.00 | 0.00 | 0.00 | 35 | 1021.0 |
| 20260503180515 | 79 | 180 | 2.0 | 8.0 | 0.00 | 0.00 | 0.00 | 38 | 1021.3 |
| 20260503175516 | 78 | 180 | 1.0 | 4.0 | 0.00 | 0.00 | 0.00 | 39 | 1021.5 |
| 20260503174515 | 78 | 180 | 2.0 | 9.0 | 0.00 | 0.00 | 0.00 | 38 | 1021.6 |
| 20260503173515 | 78 | 180 | 2.0 | 14.0 | 0.00 | 0.00 | 0.00 | 40 | 1021.9 |
| 20260503172516 | 78 | 0.0 | 6.0 | 0.00 | 0.00 | 0.00 | 41 | 1022.0 |